Regional Weather Roundup
Issued by NWS

Home | Current Version | Previous Version | Text Only | Print | Product List | Glossary Off
Versions: 1 2 3 4 5 6 7 8 9 10 11 12 13 14 15 16 17 18 19 20 21 22 23 24 25 26 27 28 29 30 31 32 33 34 35 36 37 38 39 40 41 42 43 44 45 46 47 48 49 50

000
ASUS43 KOAX 312102
RWRNE

WEATHER ROUNDUP FOR NEBRASKA
NATIONAL WEATHER SERVICE OMAHA NE
300 PM CST SAT JAN 31 2015

NOTES: SATELLITE DATA IS BEING USED TO AUGMENT CLOUD COVER ABOVE
       12000 FEET.
       "FAIR" INDICATES FEW OR NO CLOUDS BELOW 12,000 FEET WITH NO
       SIGNIFICANT WEATHER AND/OR OBSTRUCTIONS TO VISIBILITY.

  * THESE STATIONS DO NOT REPORT WEATHER SUCH AS RAIN...SNOW OR FOG.

NEZ001>004-019>022-054>056-312200-
NEBRASKA PANHANDLE

CITY           SKY/WX    TMP DP  RH WIND       PRES   REMARKS
SCOTTSBLUFF    LGT SNOW  33  31  92 N6        29.85F FOG     WCI  28
ALLIANCE       SNOW      30  28  92 NE9       29.84F VSB 1/4 WCI  22
CHADRON        CLOUDY    31  26  82 NE13      29.91S WCI  21
SIDNEY         LGT SNOW  32  31  96 N9        29.82S VSB 1   WCI  24
$$

NEZ057>060-069>072-079>082-312200-
SOUTHWEST NEBRASKA

CITY           SKY/WX    TMP DP  RH WIND       PRES   REMARKS
NORTH PLATTE   LGT SNOW  34  32  92 NE6       29.84F FOG     WCI  29
IMPERIAL       LGT SNOW  34  32  92 N6        29.83F FOG     WCI  29
MCCOOK         FOG       36  34  92 NE6       29.83F VSB 1   WCI  31
$$

NEZ005>010-023>029-035>040-094-312200-
NORTH CENTRAL NEBRASKA

CITY           SKY/WX    TMP DP  RH WIND       PRES   REMARKS
VALENTINE      FOG       24  23  96 NE16      29.96S VSB 3/4 WCI  11
BROKEN BOW     LGT SNOW  35  32  88 E5        29.87F FOG     WCI  31
ORD            FLURRIES  34  31  88 E6        29.91F WCI  29
$$

NEZ041-046>049-061>064-073>077-083>087-312200-
SOUTH CENTRAL NEBRASKA

CITY           SKY/WX    TMP DP  RH WIND       PRES   REMARKS
GRAND ISLAND   LGT SNOW  32  32 100 SE6       29.93F VSB 1   WCI  26
AURORA         LGT SNOW  33  33 100 SE8       29.92F WCI  26
HASTINGS       LGT SNOW  32  30  92 SE7       29.89F FOG     WCI  26
KEARNEY *      CLOUDY    32  30  93 SE5       29.89F WCI  27
$$

NEZ011>018-030>034-042>045-312200-
NORTHEAST NEBRASKA

CITY           SKY/WX    TMP DP  RH WIND       PRES   REMARKS
NORFOLK        CLOUDY    36  32  85 SE8       29.96F WCI  30
ALBION         FLURRIES  35  31  85 S7        29.95F WCI  29
BLAIR          FLURRIES  35  33  94 SE12      30.00F WCI  26
TEKAMAH        LGT SNOW  34  33  96 E6        30.02F FOG     WCI  29
$$

NEZ050>053-065>068-078-088>093-312200-
SOUTHEAST NEBRASKA

CITY           SKY/WX    TMP DP  RH WIND       PRES   REMARKS
LINCOLN        LGT SNOW  33  32  96 SE9       29.99F FOG     WCI  25
OMAHA EPPLEY   LGT SNOW  34  33  96 SE9       30.03F FOG     WCI  27
FALLS CITY     LGT RAIN  35  35 100 SE10      30.04F FOG     WCI  27
$$

NEZ044-045-051>053-067-312200-
OMAHA AREA

CITY           SKY/WX    TMP DP  RH WIND       PRES   REMARKS
OMAHA EPPLEY   LGT SNOW  34  33  96 SE9       30.03F FOG     WCI  27
BLAIR          FLURRIES  35  33  94 SE12      30.00F WCI  26
OFFUTT AFB     LGT SNOW  34  32  93 SE8       30.02F FOG     WCI  27
$$


USA.gov is the U.S. government's official web portal to all federal, state and local government web resources and services.